Location: ?????????
(55.6553°N, 38.9075°E)
Time: 21:07:56
(UTC+00:00)

Cosmos 2251 Rocket - Pass Details

Date: 18 October 2019
Orbit: 765 x 792 km, 74.0° (Epoch: 14 November)

Event Time Altitude Azimuth Distance (km) Brightness Sun altitude
Exits shadow 01:59:26 29° 240° (WSW) 1,435 4.4 -17.7°
Maximum altitude 02:02:03 55° 305° (NW) 953 3.7 -17.3°
Drops below altitude 10° 02:07:21 10° 23° (NNE) 2,371 6.4 -16.6°
Sets 02:09:49 0° 28° (NNE) 3,302 7.3 -16.2°
